Location: LDNL
(36.4545°S, 141.6685°E)
Time: 15:49:38
(UTC+10:00)

Courier 1B - Pass Details

Date: 08 August 2022
Orbit: 962 x 1209 km, 28.3° (Epoch: 25 September)

Event Time Altitude Azimuth Distance (km) Brightness Sun altitude
Exits shadow 03:21:02 15° 69° (ENE) 2,691 10.1 -48.9°
Drops below altitude 10° 03:22:15 10° 72° (ENE) 3,064 10.5 -48.7°
Sets 03:25:07 0° 78° (ENE) 3,992 11.2 -48.1°
